Tracking 30692 objects as of 16-Jun-2025
HD Live streaming from Space Station
objects crossing your sky now

FENGYUN 1C DEB

Track FENGYUN 1C DEB now!
10-day predictions


NORAD ID: 35204
Int'l Code: 1999-025DPL
Perigee: 717.8 km
Apogee: 778.0 km
Inclination: 99.0 °
Period: 99.6 minutes
Semi major axis: 7118 km
RCS: 0.0049 m2 (small)
Launch date: May 10, 1999
Source: People's Republic of China (PRC)
Launch site: Taiyaun Space Center, China (TSC)

Note: This is SATELLITE DEBRIS
Your satellite tracking list
Your tracking list is empty




NASA's NSSDC Master Catalog

Two Line Element Set (TLE):
1 35204U 99025DPL 25166.25366905  .00006403  00000-0  18132-2 0  9995
2 35204  99.0099 343.3546 0042234 141.7019  37.5832 14.45386451883208
Source of the keplerian elements: AFSPC